sat.trackr.live / text

‹ back to catalog

KUIPER-00210

NORAD 67146 · 2025-301P

PAYLOAD ACTIVE UNKNOWN

§ Identity

Operator
Country
US
Launch date
2025-12-16
Launch site
AFETR
Launch vehicle
Mass (kg)
RCS (m²)

External: N2YO · Heavens-Above · Gunter

§ Orbital elements

Epoch: 2026-09-20T08:08:46.407264Z

Period
97.30 min
Inclination
51.9006°
Eccentricity
0.0000377
Mean motion
14.79942375 rev/d
Perigee alt
629.2 km
Apogee alt
629.8 km
Semi-major
7,007.6 km
B*
2.3428e-4
RAAN
292.3573°
Arg perigee
51.8005°
Mean anomaly
308.2992°
Rev number
4,262

§ Raw data

KUIPER-002101 67146U 25301P   26263.33942601  .00001566  00000+0  23428-3 0  99912 67146  51.9006 292.3573 0000377  51.8005 308.2992 14.79942375 42622

JSON: /api/v1/satellites/67146 · /tle

For live sub-satellite position, see the globe view (requires WebGL).

§ Visibility from observer

Set your observer location to see the next 7 days of passes ≥ 10°. The values pass through the URL so the page stays shareable.

No JS? Fill the form by hand. The geolocation button needs JavaScript.